Regional Weather Roundup
Issued by NWS

Home | Current Version | Previous Version | Text Only | Print | Product List | Glossary On
Versions: 1 2 3 4 5 6 7 8 9 10 11 12 13 14 15 16 17 18 19 20 21 22 23 24 25 26 27 28
000
ASUS45 KCYS 270510
RWRWY

WYOMING REGIONAL WEATHER ROUNDUP
NATIONAL WEATHER SERVICE CHEYENNE WY
1100 PM MDT THU APR 26 2018

NOTE:  "FAIR" INDICATES FEW OR NO CLOUDS BELOW 12,000 FEET
WITH NO SIGNIFICANT WEATHER AND/OR OBSTRUCTIONS TO VISIBILITY.

WYZ001-270600-
YELLOWSTONE NATIONAL PARK

CITY           SKY/WX    TMP DP  RH WIND       PRES   REMARKS
LK YELLOWSTONE   N/A     27  20  75 CALM      30.30S
W YELLOWSTONE  NOT AVBL

$$
WYZ002>013-054>058-071-098>099-270600-
NORTHERN WYOMING

CITY           SKY/WX    TMP DP  RH WIND       PRES   REMARKS
JACKSON        FAIR      34  20  56 N13       30.22S WCI  25
CODY           FAIR      47  28  47 CALM      30.19S
GREYBULL       FAIR      50  33  52 E9        30.15S
WORLAND        FAIR      43  26  51 SE8       30.15F
SHERIDAN       FAIR      41  33  73 CALM      30.14S
BUFFALO        FAIR      50  31  48 W7        30.17F
GILLETTE       FAIR      38  29  70 SW5       30.14F WCI  34
HULETT         FAIR      45  32  61 S9        30.14F
NEWCASTLE      FAIR      41  28  60 CALM      30.16S

$$
WYZ014>020-022>026-101>103-270600-
CENTRAL WYOMING

CITY           SKY/WX    TMP DP  RH WIND       PRES   REMARKS
BIG PINEY      FAIR      33  12  41 NW6       30.25S WCI  28
PINEDALE       FAIR      36  23  60 CALM      30.27R
DUBOIS         FAIR      39  23  52 W8        30.27S WCI  34
LANDER         FAIR      45  23  42 CALM      30.19S
RIVERTON       FAIR      53  17  24 SE3       30.20F
CASPER         FAIR      36  23  59 W6        30.20S WCI  31
DOUGLAS        FAIR      40  28  62 CALM      30.20S

$$
WYZ021-027>030-104>119-270600-
SOUTHERN WYOMING

CITY           SKY/WX    TMP DP  RH WIND       PRES   REMARKS
EVANSTON       FAIR      49  15  25 E8        30.22S
KEMMERER       FAIR      50  10  20 CALM      30.25S
FORT BRIDGER   FAIR      45  13  27 S10       30.26S
ROCK SPRINGS   FAIR      46  12  25 S7        30.24S
DIXON          FAIR      39  20  46 NE8       30.28S WCI  34
RAWLINS        FAIR      33  18  53 CALM      30.26F
SARATOGA       FAIR      34  19  55 S12       30.28S WCI  25
LARAMIE        FAIR      29  17  61 W5        30.27F WCI  24
CHEYENNE       FAIR      37  29  72 W6        30.26F WCI  32
TORRINGTON     FAIR      43  31  62 CALM      30.17F
PINE BLUFFS    FAIR      34  28  80 CALM      30.24S

$$




USA.gov is the U.S. government's official web portal to all federal, state and local government web resources and services.